ONEWEB-0034 (45454 NORAD) Tracking and Keplerian Element Data

This shows tracking and keplerian element data for the satellite.

Feedback or suggestion? Click here.




ElementValue
Catalog45454
NameONEWEB-0034
Epoch Orbit176
Epoch Day188.91667824
Epoch Year2020
RAAN103.769
Inclination87.5783
Eccentricity0.0022761
Argument of Perigee274.3356
Mean Anonmoly144.7064
Mean Motion14.8994075
Decay Rate-0.00054146
L11 45454U 20020AG 20188.91667824 -.00054146 00000-0 -56511-2 0 9990
L22 45454 87.5783 103.7690 0022761 274.3356 144.7064 14.89940750 1763

Live tracking and technical data element details for ONEWEB-0034 (NORAD 45454). ONEWEB-0034 can be tracked NOW for your location showing map with azimuth and elevation plus other details from your city location.

Track the satellite on the map from your city or location and see movement details for azimuth, elevation, latitude, longitude, range, height, and movement on the map or in text.







IsCatalogInMostPopularTable: catalog: 45454, numindb: 20
Update: records affected: 1



GetName: 45454 ONEWEB-0034

Hit Count: updated at: Wed, 08 Jul 2020 05:25:27 GMT